170P/Christensen (2014)

Japanese version
Home page
Updated on July 20, 2015

---------------------------------------------------------------------

* Profile

* Pictures

* Orbital Elements

Epoch 2014 Sept. 20.0 TT = JDT 2456920.5
T 2014 Sept. 17.96745 TT                                MPC
q   2.9206572            (2000.0)            P               Q
n   0.11451547     Peri.  225.82745     +0.98163124     -0.15861650
a   4.1997807      Node   142.91945     +0.18150997     +0.94760452
e   0.3045691      Incl.   10.12780     -0.05877276     +0.27728412
P   8.61
From 133 observations 2005 June 17-2014 July 3, mean residual 0".7.

* Magnitudes Graph

        m1 = 9.0 + 5 log d + 15.0 log r(t - 100)

---------------------------------------------------------------------

The orbital elements are published on M.P.E.C. 2014-N57.
The magnitudes graphs are made with Comet for Windows.

---------------------------------------------------------------------

Copyright(C) Seiichi Yoshida (comet@aerith.net). All rights reserved.